Location: Geisd�rfle
(48.5766°N, 8.1903°E)
Time: 20:07:25
(UTC+00:00)

Daily predictions for brighter satellites

Satellite Brightness Start Highest point End
(mag) Time Altitude Azimuth Time Altitude Azimuth Time Altitude Azimuth
NOSS 3-2 (C) 4.2 20:05:08 10° WSW 20:10:49 61° NW 20:17:28 10° NE
ATLAS CENTAUR R/B 1.8 20:09:05 10° NNW 20:13:21 61° NE 20:17:53 10° SE
Cosmos 2173 Rocket 4.2 20:09:41 10° N 20:16:04 68° ENE 20:22:25 10° SSE
Cosmos 405 4.3 20:13:36 10° NNE 20:16:34 26° ENE 20:19:30 10° SE
SL-8 R/B 4.2 20:12:46 10° W 20:17:23 48° SSW 20:21:59 10° SE
Cosmos 1452 Rocket 3.9 20:14:36 10° SSW 20:19:52 73° WNW 20:25:10 10° NNE
Cosmos 2016 Rocket 4.4 20:14:02 10° N 20:19:57 49° ENE 20:25:52 10° SSE
SL-4 R/B 3.8 20:19:23 10° SSE 20:20:55 12° SE 20:22:25 10° ESE
Cosmos 2219 Rocket 3.0 20:18:24 10° SSE 20:23:22 32° ESE 20:28:21 10° NE
Cosmos 2333 Rocket 2.8 20:19:22 10° S 20:24:38 38° ESE 20:29:54 10° NE
FALCON 9 DEB 3.7 20:23:33 10° SSW 20:26:18 29° SE 20:29:06 10° E
ERS-1 Rocket 3.5 20:24:27 10° SE 20:29:17 49° ENE 20:34:09 10° N
Cosmos 1025 Rocket 3.3 20:25:15 10° S 20:29:31 54° E 20:33:47 10° NNE
Geosat 4.4 20:24:56 10° SE 20:29:50 56° NE 20:34:46 10° NNW
Lacrosse 5 rocket 0.9 20:26:21 10° SW 20:30:01 69° SE 20:33:36 10° ENE
Cosmos 1844 3.8 20:24:35 10° NNW 20:30:11 83° WSW 20:35:48 10° SSE
Cosmos 1536 Rocket 4.5 20:28:35 10° SSE 20:32:33 33° E 20:36:31 10° NNE
Spot 2 Rocket 3.5 20:29:00 10° SSE 20:34:02 76° ENE 20:39:09 10° NNW
Cosmos 1725 Rocket 4.3 20:28:20 10° N 20:34:24 54° ENE 20:40:27 10° SSE
Cosmos 1727 Rocket 4.4 20:29:11 10° SSW 20:35:27 69° WNW 20:41:43 10° N
Cosmos 1331 Rocket 4.0 20:31:42 10° SSW 20:36:56 77° ESE 20:42:14 10° NNE
Cosmos 1900 4.5 20:34:18 10° NW 20:39:11 69° WSW 20:43:50 11° SSE
DNEPR-1 R/B 3.5 20:35:15 10° NW 20:39:30 84° NE 20:43:36 12° SE
FALCON 9 DEB 3.0 20:38:51 10° SW 20:41:52 51° SSE 20:44:53 10° ENE
KORONAS-FOTON 4.3 20:40:01 10° SSW 20:43:45 61° W 20:47:31 10° N
CENTAUR R/B 4.2 20:37:51 10° WSW 20:43:48 42° NNW 20:50:53 10° NE
CARTOSAT-1 3.6 20:40:25 10° SSE 20:44:43 87° E 20:49:05 10° NNW
Cosmos 2237 Rocket 3.9 20:41:59 10° SE 20:44:53 15° E 20:47:54 10° ENE
Terra 2.3 20:41:19 11° SE 20:45:37 47° ENE 20:50:12 10° N
SL-14 R/B 3.6 20:41:50 10° S 20:45:44 50° E 20:49:39 10° NNE
SPOT 1/Viking Rocket 3.9 20:41:40 10° S 20:46:45 62° WSW 20:51:52 10° NNW
Cosmos 2360 Rocket 2.5 20:41:53 10° SSW 20:47:32 75° WNW 20:53:12 10° NNE
CZ-2C R/B 4.0 20:42:55 10° NNE 20:47:43 77° WNW 20:52:29 10° SSW
Cosmos 1674 3.4 20:44:10 10° SSW 20:47:48 53° WNW 20:51:27 10° N
FALCON 9 DEB 3.1 20:46:49 10° SW 20:49:49 47° SSE 20:52:51 10° ENE
Cosmos 1953 3.3 20:47:18 10° NNW 20:51:13 46° W 20:55:05 10° SSW
Cosmos 2322 Rocket 3.5 20:46:22 10° SW 20:51:50 45° NW 20:57:19 10° NNE
SL-16 R/B 3.9 20:46:46 10° WSW 20:52:00 37° NW 20:57:16 10° NNE
FALCON 9 DEB 2.8 20:49:21 10° SW 20:52:24 58° SSE 20:55:29 10° ENE
Cosmos 1455 4.5 20:50:31 10° NE 20:52:30 14° ENE 20:54:28 10° E
SPOT 5 3.0 20:48:16 11° SSE 20:53:06 76° ENE 20:57:56 10° N
Cosmos 1975 Rocket 4.1 20:50:52 10° SSW 20:55:04 47° WNW 20:59:21 10° N
Cosmos 1802 Rocket 4.1 20:48:56 10° N 20:55:14 82° W 21:01:36 10° S
Meteor 1-24 Rocket 4.2 20:51:24 11° SSE 20:56:05 41° E 21:01:14 10° NNE
Cosmos 1459 Rocket 4.3 20:50:39 10° NNW 20:56:39 66° W 21:02:38 10° S
H-2A R/B 4.4 20:53:29 10° NNE 20:57:08 30° E 20:59:53 15° SSE
Cosmos 1302 Rocket 4.1 20:53:07 10° S 20:58:17 61° ESE 21:03:28 10° NNE
Cosmos 1300 2.7 20:59:31 10° N 21:03:20 74° E 21:06:19 16° SSE
Resurs 01 Rocket 3.8 21:02:44 10° SW 21:06:05 21° W 21:09:28 10° NW
USA 267 4.3 21:05:15 10° E 21:11:27 47° NNE 21:17:38 10° WNW
Cosmos 1340 2.7 21:07:54 10° SSW 21:11:40 78° WNW 21:15:27 10° N
Cosmos 2322 3.7 21:09:30 10° SSW 21:15:10 89° ESE 21:20:52 10° NNE
Cosmos 2278 Rocket 2.6 21:10:48 10° NNW 21:16:24 55° ENE 21:20:55 15° SE
COSMOS 2428 2.7 21:11:12 10° SSW 21:16:52 66° ESE 21:22:35 10° NNE
Cosmos 1844 Rocket 4.0 21:12:08 10° NW 21:17:07 32° WSW 21:22:03 10° SSW
Cosmos 389 Rocket 2.9 21:19:05 10° N 21:22:24 46° ENE 21:24:17 22° SE
NOSS 0 Rocket 4.4 21:17:59 13° S 21:22:59 41° ESE 21:28:45 10° NE
Cosmos 1726 Rocket 4.4 21:19:56 10° N 21:24:07 38° ENE 21:26:53 18° SE
Cosmos 1867 3.6 21:19:20 10° NW 21:24:51 86° SW 21:28:54 19° SE
Cosmos 968 Rocket 3.5 21:24:40 10° NNW 21:29:47 74° WSW 21:33:29 19° SSE
Cosmos 1626 4.0 21:31:33 10° SW 21:34:45 28° WNW 21:37:59 10° NNW
Cosmos 1486 Rocket 4.0 21:30:03 10° NNW 21:35:18 87° WSW 21:38:52 21° SSE
SJ 16-02 3.7 21:34:10 10° NNE 21:36:34 14° NE 21:38:56 10° E
Cosmos 2123 Rocket 4.5 21:31:11 10° SSW 21:37:25 63° WNW 21:43:43 10° N
FALCON 9 DEB 4.5 21:34:29 10° W 21:37:46 42° N 21:41:02 10° ENE
Meteor 2-10 Rocket 3.4 21:34:06 10° NNW 21:39:12 88° E 21:42:36 21° SSE
Cosmos 1606 Rocket 3.7 21:35:23 10° N 21:39:51 68° ENE 21:42:32 23° SSE
Cosmos 2233 Rocket 4.0 21:34:33 10° NNW 21:40:44 79° W 21:45:35 17° S
Uosat 12 SS-18 rocket 4.2 21:37:07 10° SW 21:41:31 86° SE 21:46:40 10° NE
Cosmos 1943 Rocket 4.0 21:37:21 10° N 21:41:41 23° NE 21:46:01 10° E
Cosmos 1992 Rocket 4.0 21:37:59 16° S 21:42:08 62° ESE 21:47:19 10° NNE
ARIANE 5 R/B 4.3 21:38:50 10° SSW 21:42:39 28° W 21:46:32 10° NW
Cosmos 1892 Rocket 4.2 21:43:59 23° SSE 21:46:13 41° E 21:50:24 10° NNE
Cosmos 1346 Rocket 2.7 21:47:03 21° S 21:49:39 84° E 21:53:43 10° NNE
Cosmos 1447 Rocket 4.5 21:44:53 16° S 21:49:58 83° E 21:56:10 10° N
Cosmos 1354 Rocket 4.2 21:46:14 10° NNW 21:51:35 68° ENE 21:55:00 22° SE
ATLAS CENTAUR R/B 3.3 21:48:37 10° WNW 21:51:56 21° WSW 21:54:30 14° SSW
Cosmos 1980 3.9 21:51:14 19° S 21:55:12 54° ESE 22:00:46 10° NE
BREEZE-M DEB (TANK) 3.6 21:45:49 10° SW 21:56:18 43° SSE 21:59:43 10° E
ATLAS 3B R/B 3.1 21:51:06 10° SW 21:57:36 63° NW 22:04:24 10° NE
SL-4 R/B 2.0 21:55:54 10° SW 21:59:53 50° SSE 22:03:36 10° ENE
ALOS 2 3.9 21:57:53 17° ESE 22:00:28 30° ENE 22:04:19 10° N
FALCON 9 DEB 3.5 21:58:47 10° W 22:01:53 58° NNW 22:05:00 10° ENE
Cosmos 2219 Rocket 3.2 22:01:39 10° SW 22:07:09 48° NW 22:12:39 10° NNE
Cosmos 1607 4.0 22:02:23 10° NW 22:08:49 79° SW 22:12:53 24° SSE
Cosmos 2333 Rocket 3.5 22:03:27 10° WSW 22:08:53 42° NW 22:14:19 10° NNE
Lacrosse 5 rocket 3.1 22:06:06 10° W 22:09:20 30° NNW 22:12:33 10° NE
Cosmos 1703 4.0 22:08:43 28° SE 22:10:04 38° E 22:13:45 10° NNE
Cosmos 2228 3.7 22:07:16 10° NNW 22:11:31 48° W 22:14:06 22° SSW
Iridium 2 3.6 22:12:19 31° S 22:14:01 87° W 22:17:48 10° N
FALCON 9 DEB 4.1 22:14:33 10° W 22:17:32 43° NNW 22:20:31 10° ENE
Meteor 2-1 Rocket 4.2 22:13:31 10° N 22:19:03 76° ENE 22:22:14 27° SSE
USA 215 3.4 22:13:05 10° ENE 22:19:25 50° SE 22:25:28 11° SSW
Terra 3.6 22:20:12 12° SW 22:23:36 24° W 22:27:26 10° NW
COBE Rocket 4.1 22:22:10 27° SSE 22:24:52 67° ENE 22:29:45 10° N
FALCON 9 DEB 4.1 22:22:32 10° W 22:25:34 44° NNW 22:28:34 10° ENE
SL-16 R/B 3.1 22:23:55 25° SE 22:26:07 33° ESE 22:31:08 10° NE
Cosmos 2237 Rocket 2.1 22:23:45 18° SSW 22:28:04 87° ESE 22:33:45 10° NNE
FALCON 9 DEB 4.3 22:25:09 10° W 22:28:08 41° NNW 22:31:07 10° ENE
Cosmos 1455 2.5 22:24:43 10° NNW 22:28:29 57° W 22:29:59 32° SSW
Cosmos 1464 Rocket 4.0 22:24:09 10° N 22:30:33 87° W 22:34:26 26° S
Cosmos 1184 Rocket 2.7 22:29:49 43° SSW 22:30:46 81° W 22:34:01 10° N
Cosmos 1328 4.4 22:31:00 32° SE 22:32:07 41° E 22:35:49 10° NNE
Cosmos 2369 Rocket 3.8 22:30:57 10° NNW 22:35:57 30° NE 22:40:56 10° ESE
Cosmos 192 4.3 22:33:47 24° SSW 22:36:45 89° ESE 22:41:42 10° NNE
GEOS 3 Rocket 3.7 22:38:08 27° SSE 22:41:11 75° SW 22:46:33 10° NW
ATLAS CENTAUR R/B 3.4 22:40:46 22° SSW 22:44:16 62° SE 22:56:51 10° NE
USA 32 4.3 22:45:34 10° N 22:50:46 58° E 22:53:23 28° SSE
Aureole 3 4.4 22:47:34 10° N 22:51:13 38° ENE 22:53:19 24° SE
Cosmos 1816 Rocket 4.5 22:47:50 28° S 22:51:14 72° E 22:57:21 10° NNE
USA 267 3.3 22:47:32 10° ESE 22:54:05 83° NNE 23:00:41 10° NW
Okean 1-7 Rocket 3.7 22:54:15 30° SSW 22:56:23 69° W 23:00:49 10° N
Cosmos 1812 Rocket 3.8 22:53:15 10° N 22:57:35 60° ENE 22:59:21 33° SE
BREEZE-M DEB (TANK) 3.1 22:56:34 10° W 23:00:02 80° N 23:10:29 10° E
Cosmos 2278 Rocket 3.5 22:55:25 10° NW 23:00:09 28° WSW 23:02:45 20° SW
Cosmos 2058 Rocket 4.1 22:58:25 10° NNW 23:02:31 37° W 23:04:24 25° SW
Cosmos 2297 3.7 22:57:23 10° NNW 23:03:04 88° ENE 23:06:11 28° SSE
Cosmos 2034 Rocket 4.1 23:00:31 10° NNW 23:06:38 67° W 23:10:01 28° S
Thor Agena Rocket 4.1 23:02:31 10° NNE 23:07:35 46° E 23:09:46 29° SSE
NOSS 2-3 (C) 4.2 23:07:21 34° SE 23:08:07 36° ESE 23:12:27 10° NE
SAR-Lupe-2 3.7 23:05:13 10° NNE 23:08:48 60° ESE 23:09:33 46° SSE
FALCON 9 DEB 4.4 23:11:48 10° WNW 23:15:05 43° N 23:18:21 10° E
SJ 16-02 1.2 23:11:24 10° NNW 23:15:48 87° WSW 23:17:27 38° SSE
Cosmos 1174 4.4 23:14:18 28° SSW 23:17:18 73° ESE 23:21:56 10° NE
Meteor 1-11 4.2 23:19:57 31° S 23:22:45 82° E 23:28:22 10° NNE
Meteor 1-27 4.3 23:18:39 10° N 23:24:13 71° ENE 23:27:14 28° SSE
GP-B 3.1 23:19:51 10° N 23:24:19 81° E 23:26:01 38° S
Meteor 1-4 Rocket 3.3 23:22:46 10° NNW 23:26:00 36° W 23:26:36 33° WSW
Cosmos 1943 Rocket 2.1 23:20:33 10° NNW 23:26:05 79° WSW 23:28:53 30° SSE
Nimbus 7 Rocket 4.4 23:20:14 10° NNE 23:26:20 89° ESE 23:29:47 28° SSW
Cosmos 1825 Rocket 4.1 23:25:14 32° SE 23:26:51 47° E 23:31:08 10° NNE
Cosmos 1892 3.4 23:30:16 34° SE 23:31:20 44° E 23:35:03 10° NNE
MTI 3.9 23:28:58 10° N 23:31:58 57° WNW 23:32:27 49° WSW
Cosmos 1869 3.6 23:32:30 10° N 23:36:34 60° ENE 23:38:08 34° SE
ALOS 2 3.7 23:35:17 26° SW 23:36:45 32° W 23:40:43 10° NNW
CZ-2D R/B 4.3 23:34:49 10° ENE 23:37:03 13° E 23:39:17 10° ESE
Tsikada Rocket 4.2 23:34:13 26° SSW 23:37:50 66° WNW 23:44:00 10° N
Cosmos 1943 4.3 23:36:45 23° SE 23:39:02 31° ESE 23:43:57 10° NE
SL-4 R/B 2.3 23:35:34 10° W 23:39:28 61° NNW 23:43:06 10° ENE
Cosmos 990 Rocket 4.1 23:34:36 10° NNW 23:39:49 71° ENE 23:42:50 25° SE
Lacrosse 4 Rocket 3.9 23:37:10 10° N 23:40:13 20° NE 23:43:14 10° E
EO 1 Del DPAF 4.0 23:38:11 10° NNE 23:41:42 38° E 23:42:38 32° SE
USA 229 DEB 3.7 23:38:46 28° S 23:42:09 60° ESE 23:48:51 10° NE
USA 229 3.7 23:38:53 28° S 23:42:15 59° ESE 23:48:57 10° NE
NOSS 8 (F) 4.1 23:43:55 60° SSE 23:44:04 61° SE 23:47:00 10° NE
Cosmos 1603 4.5 23:46:12 26° SSE 23:48:39 39° ESE 23:53:52 10° NE
Lacrosse 5 rocket 3.8 23:46:26 10° NW 23:49:16 21° N 23:52:06 10° NE
NOSS 3-1 (C) 3.3 23:46:44 23° SW 23:50:15 87° NW 23:56:42 10° NE
Cosmos 1953 Rocket 3.9 23:50:42 34° SSE 23:52:22 56° E 23:56:43 10° NNE
SL-16 R/B 4.1 23:47:56 10° ESE 23:53:13 31° ENE 23:58:30 10° N
Cosmos 1408 2.7 23:53:09 44° SSE 23:54:07 65° E 23:57:48 10° NNE
Cosmos 1825 3.1 23:54:28 30° SE 23:55:38 38° E 23:59:10 10° NNE
